Terminal Aerodrome Forecast
Issued by NWS

Home | Current Version | Previous Version | Text Only | Print | Product List | Glossary On
Versions: 1 2 3 4 5 6 7 8 9 10 11 12 13 14
000
FTUS44 KEPZ 291158
TAFLRU
TAF
KLRU 291158Z 2912/3012 14007KT P6SM FEW070 SCT100 BKN250
     FM292200 14007KT P6SM VCTS SCT070CB BKN250=

USA.gov is the U.S. government's official web portal to all federal, state and local government web resources and services.